Bangkok (Suvarnabhumi), Thailand

9:26 AM +07 on December 09, 2019 (GMT +0700)
Bangkok (Suvarnabhumi)

Weather History for VTBS - October, 2019

Change the Weather History Date:

Wednesday, October 9, 2019

  Actual Average (VTBU) Record (VTBU)
Temperature  
Mean Temperature 84 °F -  
Max Temperature 92 °F 90 °F 93 °F (2010)
Min Temperature 75 °F 74 °F 73 °F (2013)
Cooling Degree Days 18    
Growing Degree Days 34 (Base 50)    
Moisture  
Dew Point 76 °F    
Average Humidity 78    
Maximum Humidity 95    
Minimum Humidity 52    
Precipitation  
Precipitation 0.00 in 0.22 in - ()
Sea Level Pressure  
Sea Level Pressure 29.84 in    
Wind  
Wind Speed 3 mph ()    
Max Wind Speed 14 mph    
Max Gust Speed 16 mph    
Visibility 5.4 miles    
Events Thunderstorm    
Averages and records for this station are not official NWS values.
T = Trace of Precipitation, MM = Missing Value Source: Averaged Metar Reports

Daily Weather History Graph

Daily Weather History Graph

Search for Another Location

Airport or City:

Astronomy

Oct. 09, 2019 Rise Set
Actual Time 6:05 AM +07 6:00 PM +07
Civil Twilight 5:44 AM +07 6:22 PM +07
Nautical Twilight 5:19 AM +07 6:46 PM +07
Astronomical Twilight 4:55 AM +07 7:11 PM +07
Moon 3:20 PM +07 2:22 AM +07
Length of Visible Light 12h 37m
Length of Day
11h 55m
Waxing Gibbous, 81% of the Moon is Illuminated
Oct 9
Waxing Gibbous
Oct 14
Full
Oct 21
Last Quarter
Oct 28
New
Nov 4
First Quarter

Hourly Weather History & Observations

Time (+07) Temp. Heat Index Dew Point Humidity Pressure Visibility Wind Dir Wind Speed Gust Speed Precip Events Conditions
12:00 AM 78.8 °F - 75.2 °F 89% 29.89 in 6.2 mi WSW 2.3 mph - N/A   Mostly Cloudy
12:30 AM 78.8 °F - 75.2 °F 89% 29.89 in 6.2 mi NE 4.6 mph - N/A   Partly Cloudy
1:00 AM 78 °F - 77 °F 94% 29.85 in 2 mi Calm Calm - -   Mist
1:00 AM 78.8 °F - 75.2 °F 89% 29.86 in 6.2 mi Variable 2.3 mph - N/A   Partly Cloudy
1:30 AM 77.0 °F - 75.2 °F 94% 29.86 in 6.2 mi Variable 2.3 mph - N/A   Mostly Cloudy
2:00 AM 78.8 °F - 75.2 °F 89% 29.86 in 6.2 mi North 4.6 mph - N/A   Mostly Cloudy
2:30 AM 77.0 °F - 75.2 °F 94% 29.86 in 6.2 mi NNW 4.6 mph - N/A   Scattered Clouds
3:00 AM 78.8 °F - 75.2 °F 89% 29.86 in 6.2 mi NNW 4.6 mph - N/A   Scattered Clouds
3:30 AM 78.8 °F - 75.2 °F 89% 29.83 in 6.2 mi NNW 4.6 mph - N/A   Scattered Clouds
4:00 AM 78 °F - 77 °F 95% 29.83 in 1 mi Calm Calm - -   Mist
4:00 AM 78.8 °F - 75.2 °F 89% 29.83 in 6.2 mi NNW 4.6 mph - N/A   Scattered Clouds
4:30 AM 78.8 °F - 75.2 °F 89% 29.83 in 6.2 mi NNW 3.5 mph - N/A   Scattered Clouds
5:00 AM 78.8 °F - 75.2 °F 89% 29.83 in 6.2 mi NNW 3.5 mph - N/A   Partly Cloudy
5:30 AM 77.0 °F - 75.2 °F 94% 29.83 in 6.2 mi North 3.5 mph - N/A   Partly Cloudy
6:00 AM 77.0 °F - 75.2 °F 94% 29.86 in 6.2 mi North 3.5 mph - N/A   Partly Cloudy
6:30 AM 78.8 °F - 77.0 °F 94% 29.86 in 5.6 mi NNW 3.5 mph - N/A   Partly Cloudy
7:00 AM 79 °F - 78 °F 94% 29.88 in 1 mi ENE 5.8 mph - -   Mist
7:00 AM 78.8 °F - 77.0 °F 94% 29.86 in 5.6 mi North 3.5 mph - N/A   Partly Cloudy
7:30 AM 80.6 °F 87.1 °F 77.0 °F 89% 29.89 in 5.6 mi North 5.8 mph - N/A   Partly Cloudy
8:00 AM 82.4 °F 90.9 °F 77.0 °F 84% 29.89 in 5.6 mi North 5.8 mph - N/A   Partly Cloudy
8:30 AM 82.4 °F 90.9 °F 77.0 °F 84% 29.92 in 5.6 mi North 4.6 mph - N/A   Partly Cloudy
9:30 AM 84.2 °F 92.3 °F 75.2 °F 74% 29.92 in 5.6 mi North 3.5 mph - N/A   Partly Cloudy
10:00 AM 86 °F - 80 °F 78% 29.91 in 2 mi East 3.5 mph - -   Mist
10:00 AM 86.0 °F 96.9 °F 77.0 °F 74% 29.92 in 5.6 mi North 4.6 mph - N/A   Partly Cloudy
10:30 AM 87.8 °F 99.7 °F 77.0 °F 70% 29.92 in 5.6 mi NE 5.8 mph - N/A   Partly Cloudy
11:30 AM 89.6 °F 99.8 °F 75.2 °F 62% 29.89 in 6.2 mi NE 4.6 mph - N/A   Scattered Clouds
12:00 PM 89.6 °F 99.8 °F 75.2 °F 62% 29.86 in 6.2 mi ENE 2.3 mph - N/A   Scattered Clouds
12:30 PM 91.4 °F 102.5 °F 75.2 °F 59% 29.86 in 6.2 mi Variable 2.3 mph - N/A   Scattered Clouds
1:00 PM 89 °F - 80 °F 68% 29.81 in 2 mi West 9.2 mph - -   Mist
1:00 PM 91.4 °F 100.1 °F 73.4 °F 55% 29.83 in 6.2 mi East 4.6 mph 16.1 mph N/A   Partly Cloudy
1:30 PM 91.4 °F 98.4 °F 71.6 °F 52% 29.80 in 6.2 mi East 5.8 mph - N/A   Partly Cloudy
2:00 PM 93.2 °F 102.4 °F 73.4 °F 52% 29.80 in 6.2 mi East 6.9 mph - N/A   Partly Cloudy
2:30 PM 91.4 °F 100.1 °F 73.4 °F 55% 29.77 in 6.2 mi East 5.8 mph - N/A   Partly Cloudy
3:00 PM 91.4 °F 98.4 °F 71.6 °F 52% 29.77 in 6.2 mi ESE 3.5 mph - N/A   Scattered Clouds
3:30 PM 86.0 °F 93.4 °F 73.4 °F 66% 29.74 in 6.2 mi NE 13.8 mph - N/A   Scattered Clouds
4:00 PM 91 °F - 78 °F 57% 29.73 in 2 mi WSW 4.6 mph - -   Haze
4:00 PM 84.2 °F 92.3 °F 75.2 °F 74% 29.74 in 6.2 mi NNW 6.9 mph - N/A Thunderstorm Scattered Clouds
4:30 PM 84.2 °F 92.3 °F 75.2 °F 74% 29.77 in 6.2 mi North 4.6 mph - N/A Thunderstorm Scattered Clouds
5:00 PM 84.2 °F 92.3 °F 75.2 °F 74% 29.77 in 6.2 mi NNW 4.6 mph - N/A   Scattered Clouds
5:30 PM 84.2 °F 90.9 °F 73.4 °F 70% 29.77 in 6.2 mi North 3.5 mph - N/A   Partly Cloudy
6:00 PM 82.4 °F 89.5 °F 75.2 °F 79% 29.80 in 6.2 mi North 5.8 mph - N/A   Partly Cloudy
6:30 PM 82.4 °F 89.5 °F 75.2 °F 79% 29.80 in 6.2 mi North 4.6 mph - N/A   Partly Cloudy
7:00 PM 86 °F - 77 °F 69% 29.81 in 2 mi Calm Calm - -   Mist
7:00 PM 84.2 °F 92.3 °F 75.2 °F 74% 29.80 in 6.2 mi NNE 3.5 mph - N/A   Partly Cloudy
7:30 PM 84.2 °F 90.9 °F 73.4 °F 70% 29.83 in 6.2 mi Variable 2.3 mph - N/A   Partly Cloudy
8:00 PM 84.2 °F 92.3 °F 75.2 °F 74% 29.83 in 6.2 mi Variable 2.3 mph - N/A   Partly Cloudy
8:30 PM 84.2 °F 92.3 °F 75.2 °F 74% 29.83 in 6.2 mi NE 3.5 mph - N/A   Partly Cloudy
9:00 PM 84.2 °F 92.3 °F 75.2 °F 74% 29.86 in 6.2 mi East 3.5 mph - N/A   Partly Cloudy
10:00 PM 82 °F - 77 °F 79% 29.86 in 2 mi Calm Calm - -   Mist
10:00 PM 84.2 °F 92.3 °F 75.2 °F 74% 29.86 in 6.2 mi ESE 3.5 mph - N/A   Partly Cloudy
10:30 PM 80.6 °F 86.2 °F 75.2 °F 84% 29.86 in 6.2 mi Variable 1.2 mph - N/A   Partly Cloudy
11:00 PM 80.6 °F 86.2 °F 75.2 °F 84% 29.86 in 6.2 mi NNE 2.3 mph - N/A   Partly Cloudy